Location: Unspecified
(0.0000°N, 0.0000°E)
Time: 00:01:02
(UTC+00:00)

Envisat - Pass Details

Date: 14 July 2019
Orbit: 764 x 766 km, 98.1° (Epoch: 18 November)

Event Time Altitude Azimuth Distance (km) Brightness Sun altitude
Rises 19:34:08 0° 193° (SSW) 3,231 6.1 -20.4°
Reaches altitude 10° 19:36:52 10° 207° (SSW) 2,302 5.5 -21.1°
Maximum altitude 19:40:47 23° 258° (WSW) 1,597 5.2 -22.0°
Drops below altitude 10° 19:44:41 10° 309° (NW) 2,294 6.5 -22.8°
Sets 19:47:26 0° 323° (NW) 3,217 7.2 -23.5°
